Barrow, AK

1:46 PM AKDT on March 30, 2017 (GMT -0800)
Wiley Post-Will Rogers Memorial

Weather History for PABR - October, 2012

Change the Weather History Date:

Wednesday, October 17, 2012

  Actual Average Record
Temperature  
Mean Temperature 30 °F 17 °F  
Max Temperature 32 °F 21 °F 38 °F (1984)
Min Temperature 28 °F 12 °F -15 °F (2001)
Degree Days  
Heating Degree Days 35 48  
Month to date heating degree days 596 740  
Since 1 July heating degree days 2748 3281  
Cooling Degree Days 0 0  
Month to date cooling degree days 0 0  
Year to date cooling degree days 0 0  
Moisture  
Dew Point 26 °F    
Average Humidity 0    
Maximum Humidity 0    
Minimum Humidity 0    
Precipitation  
Precipitation 0.12 in 0.01 in 0.28 in (1922)
Month to date precipitation 0.77 0.25  
Year to date precipitation 5.51 4.02  
Snow  
Snow 1.90 in 0.30 in 3.60 in (1963)
Month to date snowfall 7.8 4.9  
Since 1 July snowfall 13.8 10.4  
Since 1 September snowfall 13.6 9.3  
Snow Depth 4.00 in    
Sea Level Pressure  
Sea Level Pressure 30.04 in    
Wind  
Wind Speed 22 mph (North)    
Max Wind Speed 30 mph    
Max Gust Speed 38 mph    
Visibility 3 miles    
Events Snow    
T = Trace of Precipitation, MM = Missing Value Source: NWS Daily Summary

Daily Weather History Graph

Daily Weather History Graph

Search for Another Location

Airport or City:

Trip Planner

Search our weather history database for the weather conditions in past years. The results will help you decide how hot, cold, wet, or windy it might be!

Date:

Astronomy

Oct. 17, 2012 Rise Set
Actual Time 10:00 AM AKDT 6:22 PM AKDT
Civil Twilight 8:50 AM AKDT 7:31 PM AKDT
Nautical Twilight 7:35 AM AKDT 8:46 PM AKDT
Astronomical Twilight 6:17 AM AKDT 10:04 PM AKDT
Moon No Moon Rise No Moon Set
Length of Visible Light 10h 40m
Length of Day
8h 22m
Waxing Crescent, 8% of the Moon is Illuminated
Oct 17
Waxing Crescent
Oct 21
First Quarter
Oct 29
Full
Nov 6
Last Quarter
Nov 13
New

Hourly Weather History & Observations

Time (AKDT) Temp. Windchill Dew Point Humidity Pressure Visibility Wind Dir Wind Speed Gust Speed Precip Events Conditions
12:53 AM 28.9 °F 16.9 °F 24.1 °F 82% 29.95 in 5.0 mi NNE 17.3 mph 24.2 mph 0.00 in Snow Light Snow
1:23 AM 28.4 °F 15.4 °F 24.8 °F 86% 29.95 in 1.8 mi North 19.6 mph 28.8 mph 0.00 in Snow Light Snow
1:33 AM 28.4 °F 14.7 °F 23.0 °F 80% 29.96 in 3.0 mi North 21.9 mph 31.1 mph 0.00 in Snow Light Snow
1:53 AM 28.9 °F 15.8 °F 24.1 °F 82% 29.96 in 2.5 mi North 20.7 mph 27.6 mph 0.00 in Snow Light Snow
2:08 AM 28.4 °F 14.4 °F 24.8 °F 86% 29.96 in 3.0 mi North 23.0 mph 31.1 mph 0.00 in Snow Light Snow
2:53 AM 28.0 °F 13.6 °F 23.0 °F 81% 29.97 in 4.0 mi North 24.2 mph 31.1 mph 0.00 in Snow Light Snow
3:53 AM 28.0 °F 13.0 °F 21.9 °F 78% 29.98 in 6.0 mi North 26.5 mph 32.2 mph 0.00 in Snow Light Snow
4:03 AM 28.4 °F 14.4 °F 21.2 °F 74% 29.98 in 6.0 mi North 23.0 mph 31.1 mph 0.00 in Snow Light Snow
4:31 AM 28.4 °F 14.4 °F 23.0 °F 80% 29.98 in 2.5 mi North 23.0 mph 31.1 mph 0.00 in Snow Light Snow
4:40 AM 28.4 °F 14.1 °F 23.0 °F 80% 29.98 in 3.0 mi North 24.2 mph 33.4 mph 0.00 in Snow Light Snow
4:53 AM 28.0 °F 13.0 °F 24.1 °F 85% 29.99 in 2.5 mi North 26.5 mph 34.5 mph 0.00 in Snow Light Snow
5:02 AM 28.4 °F 14.4 °F 23.0 °F 80% 29.98 in 2.0 mi North 23.0 mph 34.5 mph 0.00 in Snow Light Snow
5:10 AM 28.4 °F 13.8 °F 23.0 °F 80% 29.98 in 2.0 mi North 25.3 mph 32.2 mph 0.00 in Snow Light Snow
5:20 AM 28.4 °F 14.4 °F 24.8 °F 86% 29.98 in 1.5 mi North 23.0 mph 32.2 mph 0.00 in Snow Light Snow
5:53 AM 28.0 °F 13.9 °F 24.1 °F 85% 29.99 in 1.8 mi North 23.0 mph 34.5 mph 0.00 in Snow Light Snow
6:27 AM 28.4 °F 14.1 °F 24.8 °F 86% 29.98 in 1.2 mi North 24.2 mph 33.4 mph 0.00 in Snow Light Snow
6:53 AM 28.0 °F 13.3 °F 24.1 °F 85% 29.99 in 1.0 mi North 25.3 mph 35.7 mph 0.00 in Snow Light Snow
7:53 AM 28.9 °F 14.8 °F 25.0 °F 85% 29.99 in 0.8 mi North 24.2 mph 34.5 mph 0.00 in Snow Light Snow
8:53 AM 28.9 °F 14.0 °F 26.1 °F 89% 30.01 in 0.8 mi North 27.6 mph 35.7 mph 0.00 in Snow Light Snow
9:38 AM 28.4 °F 14.4 °F 26.6 °F 93% 30.00 in 1.0 mi North 23.0 mph 32.2 mph 0.00 in Snow Light Snow
9:53 AM 28.9 °F 14.8 °F 26.1 °F 89% 30.01 in 1.8 mi North 24.2 mph 35.7 mph 0.00 in Snow Light Snow
10:53 AM 30.0 °F 15.4 °F 27.0 °F 88% 30.02 in 1.0 mi North 27.6 mph 34.5 mph 0.00 in Snow Light Snow
11:26 AM 30.2 °F 15.9 °F 26.6 °F 86% 30.02 in 0.8 mi North 26.5 mph 33.4 mph 0.00 in Snow Light Snow
11:53 AM 30.0 °F 16.0 °F 27.0 °F 88% 30.03 in 0.8 mi North 25.3 mph 34.5 mph 0.00 in Snow Light Snow
12:38 PM 30.2 °F 16.2 °F 26.6 °F 86% 30.04 in 0.5 mi North 25.3 mph 35.7 mph 0.00 in Snow Snow
12:53 PM 30.0 °F 16.0 °F 27.0 °F 88% 30.04 in 0.8 mi North 25.3 mph 35.7 mph 0.00 in Snow Light Snow
1:23 PM 30.2 °F 16.5 °F 26.6 °F 86% 30.04 in 1.0 mi North 24.2 mph 33.4 mph 0.00 in Snow Light Snow
1:34 PM 30.2 °F 16.2 °F 26.6 °F 86% 30.04 in 1.0 mi North 25.3 mph 35.7 mph 0.00 in Snow Light Snow
1:44 PM 30.2 °F 16.5 °F 26.6 °F 86% 30.04 in 0.5 mi North 24.2 mph 35.7 mph 0.00 in Snow Light Snow
1:53 PM 30.0 °F 16.0 °F 28.0 °F 92% 30.05 in 0.8 mi North 25.3 mph 33.4 mph 0.00 in Snow Light Snow
2:14 PM 30.2 °F 15.9 °F 28.4 °F 93% 30.05 in 1.2 mi North 26.5 mph 35.7 mph 0.00 in Snow Light Snow
2:53 PM 30.9 °F 17.8 °F 28.0 °F 89% 30.06 in 0.8 mi North 23.0 mph - 0.00 in Snow Blowing Snow
3:53 PM 30.9 °F 17.8 °F 28.9 °F 92% 30.07 in 0.5 mi North 23.0 mph 31.1 mph 0.00 in Snow Light Snow
4:53 PM 30.9 °F 17.5 °F 28.9 °F 92% 30.08 in 1.0 mi North 24.2 mph - 0.01 in Snow Light Snow
5:02 PM 30.2 °F 16.5 °F 28.4 °F 93% 30.08 in 0.8 mi North 24.2 mph 29.9 mph 0.00 in Snow Light Snow
5:07 PM 30.2 °F 17.4 °F 28.4 °F 93% 30.08 in 1.0 mi North 20.7 mph 28.8 mph 0.00 in Snow Light Snow
5:34 PM 32.0 °F 20.1 °F 28.4 °F 87% 30.09 in 2.0 mi North 19.6 mph - 0.00 in Snow Light Snow
5:44 PM 32.0 °F 19.5 °F 28.4 °F 87% 30.09 in 4.0 mi North 21.9 mph 28.8 mph 0.00 in Snow Light Snow
5:53 PM 32.0 °F 19.5 °F 28.9 °F 88% 30.09 in 3.0 mi North 21.9 mph 28.8 mph 0.00 in Snow Light Snow
6:53 PM 32.0 °F 19.8 °F 28.0 °F 85% 30.11 in 5.0 mi North 20.7 mph - 0.00 in Snow Light Snow
7:53 PM 30.9 °F 18.7 °F 28.0 °F 89% 30.12 in 3.0 mi North 19.6 mph - 0.00 in Snow Light Snow
8:53 PM 30.9 °F 21.7 °F 28.9 °F 92% 30.14 in 3.0 mi North 11.5 mph - 0.00 in Snow Light Snow
9:20 PM 30.2 °F 21.3 °F 26.6 °F 86% 30.14 in 10.0 mi NNE 10.4 mph - 0.00 in Snow Light Snow
9:53 PM 30.9 °F 21.7 °F 23.0 °F 72% 30.15 in 10.0 mi NE 11.5 mph - 0.01 in   Overcast
10:53 PM 30.9 °F 22.2 °F 25.0 °F 79% 30.17 in 10.0 mi NNE 10.4 mph - N/A   Overcast
11:01 PM 30.2 °F 19.8 °F 24.8 °F 80% 30.16 in 10.0 mi NE 13.8 mph - N/A   Overcast
11:26 PM 30.2 °F 19.3 °F 23.0 °F 75% 30.16 in 10.0 mi NNE 15.0 mph - N/A   Overcast
11:53 PM 30.9 °F 20.2 °F 21.0 °F 67% 30.17 in 10.0 mi NNE 15.0 mph - N/A   Overcast